,,PA_Meas_PMT16A,,PR_Meas_QMR101_102,,RH_Meas_QMH101,,SR_Meas_QMS101,,TA_Meas_QMH101,,GenWind,,GenWind,
time,status,PA,status,PR,status,RH,status,SR,status,TA,status,DirAvg,status,SpdAvg,
2009-12-01, 00:00:04,VALID,920.073,VALID,0.5,VALID,97.4349,VALID,0,VALID,19.9158,VALID,311,VALID,0,
2009-12-01, 00:01:04,VALID,920.053,VALID,0.5,VALID,97.4349,VALID,0,VALID,19.9158,VALID,311,VALID,0.365625,
2009-12-01, 00:02:04,VALID,920.035,VALID,0.5,VALID,97.4044,VALID,0,VALID,19.9158,VALID,311,VALID,0.402344,
2009-12-01, 00:03:04,VALID,920.029,VALID,0.5,VALID,97.3968,VALID,0,VALID,19.8573,VALID,311,VALID,0.225391,
2009-12-01, 00:04:04,VALID,920.031,VALID,0,VALID,97.412,VALID,0,VALID,19.8573,VALID,311,VALID,1.2457,
2009-12-01, 00:05:04,VALID,920.014,VALID,0.5,VALID,97.3663,VALID,0,VALID,19.7973,VALID,311,VALID,1.29141,
2009-12-01, 00:06:04,VALID,920.01,VALID,0,VALID,97.3968,VALID,0,VALID,19.7988,VALID,262,VALID,1.2332,
2009-12-01, 00:07:04,VALID,920.015,VALID,0,VALID,97.4196,VALID,0,VALID,19.7793,VALID,254,VALID,0.942969,
2009-12-01, 00:08:04,VALID,919.974,VALID,0.5,VALID,97.4196,VALID,0,VALID,19.7793,VALID,252,VALID,0.589063,
2009-12-01, 00:09:04,VALID,919.975,VALID,0,VALID,97.4501,VALID,0,VALID,19.7598,VALID,252,VALID,0.821875,
2009-12-01, 00:10:04,VALID,919.985,VALID,0,VALID,97.4577,VALID,0,VALID,19.7598,VALID,252,VALID,0.422656,
2009-12-01, 00:11:04,VALID,919.99,VALID,0,VALID,97.4577,VALID,0,VALID,19.7598,VALID,252,VALID,0.801172,
2009-12-01, 00:12:04,VALID,919.96,VALID,0.5,VALID,97.473,VALID,0,VALID,19.7403,VALID,252,VALID,0.0546875,
2009-12-01, 00:13:04,VALID,919.977,VALID,0,VALID,97.4806,VALID,0,VALID,19.7598,VALID,252,VALID,0.487891,
2009-12-01, 00:14:04,VALID,919.964,VALID,0,VALID,97.473,VALID,0,VALID,19.7598,VALID,252,VALID,0.589063,
2009-12-01, 00:15:04,VALID,919.966,VALID,0,VALID,97.5035,VALID,0.107441,VALID,19.7373,VALID,252,VALID,0.289453,
2009-12-01, 00:16:04,VALID,919.938,VALID,0,VALID,97.5492,VALID,0.107441,VALID,19.8168,VALID,252,VALID,0.126172,
2009-12-01, 00:17:04,VALID,919.981,VALID,0,VALID,97.5416,VALID,0,VALID,19.8558,VALID,252,VALID,0.00195313,
2009-12-01, 00:18:04,VALID,919.957,VALID,0,VALID,97.5416,VALID,0.107441,VALID,19.8558,VALID,252,VALID,0.126172,
2009-12-01, 00:19:04,VALID,919.971,VALID,0,VALID,97.5264,VALID,0.107441,VALID,19.8558,VALID,252,VALID,0.203125,
2009-12-01, 00:20:04,VALID,919.961,VALID,0,VALID,97.5111,VALID,0.107441,VALID,19.8558,VALID,252,VALID,0.373047,
2009-12-01, 00:21:04,VALID,919.988,VALID,0,VALID,97.4882,VALID,0.107441,VALID,19.8363,VALID,252,VALID,0.870703,
2009-12-01, 00:22:04,VALID,919.998,VALID,0,VALID,97.4959,VALID,0.107441,VALID,19.8168,VALID,252,VALID,0.841406,
2009-12-01, 00:23:04,VALID,920.008,VALID,0,VALID,97.5569,VALID,0.107441,VALID,19.8558,VALID,252,VALID,0.403516,
2009-12-01, 00:24:04,VALID,920.025,VALID,0,VALID,97.5569,VALID,0.107441,VALID,19.8753,VALID,252,VALID,0.587891,
2009-12-01, 00:25:04,VALID,920.066,VALID,1,VALID,97.5721,VALID,0,VALID,19.8948,VALID,252,VALID,0.144141,
2009-12-01, 00:26:04,VALID,920.041,VALID,0.5,VALID,97.5187,VALID,0.107441,VALID,19.8753,VALID,252,VALID,0.181641,
2009-12-01, 00:27:04,VALID,920.005,VALID,1.5,VALID,97.4959,VALID,0.107441,VALID,19.8558,VALID,252,VALID,0.512109,
2009-12-01, 00:28:04,VALID,920.037,VALID,1,VALID,97.5035,VALID,0.107441,VALID,19.8753,VALID,252,VALID,0.532422,
2009-12-01, 00:29:04,VALID,919.955,VALID,1.5,VALID,97.5035,VALID,0.107441,VALID,19.8348,VALID,252,VALID,0.489844,
2009-12-01, 00:30:04,VALID,919.946,VALID,0.5,VALID,97.4349,VALID,0,VALID,19.8183,VALID,251,VALID,0.901563,
2009-12-01, 00:31:04,VALID,919.916,VALID,0,VALID,97.4654,VALID,0,VALID,19.8183,VALID,251,VALID,0.704297,
2009-12-01, 00:32:04,VALID,919.905,VALID,0.5,VALID,97.5111,VALID,0,VALID,19.8573,VALID,251,VALID,0.847656,
2009-12-01, 00:33:04,VALID,919.874,VALID,0.5,VALID,97.5111,VALID,0,VALID,19.8183,VALID,251,VALID,0.794922,
2009-12-01, 00:34:04,VALID,919.896,VALID,0.5,VALID,97.5416,VALID,0,VALID,19.8573,VALID,251,VALID,0.6625,
2009-12-01, 00:35:04,VALID,919.894,VALID,0,VALID,97.4959,VALID,0,VALID,19.8378,VALID,251,VALID,0.319922,
2009-12-01, 00:36:04,VALID,919.91,VALID,0.5,VALID,97.5187,VALID,0,VALID,19.8378,VALID,251,VALID,0.103125,
2009-12-01, 00:37:04,VALID,919.895,VALID,0,VALID,97.5264,VALID,0,VALID,19.8183,VALID,251,VALID,0.417578,
2009-12-01, 00:38:04,VALID,919.921,VALID,0,VALID,97.5264,VALID,0,VALID,19.8378,VALID,251,VALID,0.0449219,
2009-12-01, 00:39:04,VALID,919.893,VALID,0,VALID,97.5416,VALID,0,VALID,19.8378,VALID,251,VALID,0.158984,
2009-12-01, 00:40:04,VALID,919.879,VALID,0.5,VALID,97.5111,VALID,0,VALID,19.8183,VALID,251,VALID,0.213672,
2009-12-01, 00:41:04,VALID,919.891,VALID,0.5,VALID,97.5264,VALID,0,VALID,19.8183,VALID,251,VALID,0.352344,
2009-12-01, 00:42:04,VALID,919.867,VALID,0.5,VALID,97.5569,VALID,0,VALID,19.8378,VALID,251,VALID,0.280859,
2009-12-01, 00:43:04,VALID,919.891,VALID,1,VALID,97.534,VALID,0,VALID,19.8183,VALID,251,VALID,0.341406,
2009-12-01, 00:44:04,VALID,919.819,VALID,1.5,VALID,97.5645,VALID,0,VALID,19.8378,VALID,251,VALID,0,
2009-12-01, 00:45:04,VALID,919.823,VALID,1,VALID,97.534,VALID,0,VALID,19.8378,VALID,251,VALID,0.3375,
2009-12-01, 00:46:04,VALID,919.77,VALID,1,VALID,97.5416,VALID,0,VALID,19.8573,VALID,251,VALID,0.153906,
2009-12-01, 00:47:04,VALID,919.741,VALID,0.5,VALID,97.5721,VALID,0,VALID,19.8963,VALID,251,VALID,0.305469,
2009-12-01, 00:48:04,VALID,919.71,VALID,0,VALID,97.5721,VALID,0,VALID,19.8963,VALID,251,VALID,0,
2009-12-01, 00:49:04,VALID,919.712,VALID,0,VALID,97.5569,VALID,0,VALID,19.8753,VALID,251,VALID,0.392969,
2009-12-01, 00:50:04,VALID,919.685,VALID,0,VALID,97.5645,VALID,0,VALID,19.8948,VALID,251,VALID,0.229687,
2009-12-01, 00:51:04,VALID,919.65,VALID,0,VALID,97.5264,VALID,0,VALID,19.8963,VALID,251,VALID,0.360938,
2009-12-01, 00:52:04,VALID,919.653,VALID,0,VALID,97.5492,VALID,0,VALID,19.8963,VALID,251,VALID,0.255469,
2009-12-01, 00:53:04,VALID,919.636,VALID,0,VALID,97.5721,VALID,0,VALID,19.9158,VALID,251,VALID,0.335156,
2009-12-01, 00:54:04,VALID,919.672,VALID,0,VALID,97.5873,VALID,0,VALID,19.9158,VALID,251,VALID,0.216797,
2009-12-01, 00:55:04,VALID,919.644,VALID,0,VALID,97.5721,VALID,0,VALID,19.9548,VALID,251,VALID,0.0671875,
2009-12-01, 00:56:04,VALID,919.595,VALID,0,VALID,97.5645,VALID,0,VALID,19.9158,VALID,251,VALID,1.01914,
2009-12-01, 00:57:04,VALID,919.582,VALID,0,VALID,97.5797,VALID,0,VALID,19.9548,VALID,251,VALID,0.451172,
2009-12-01, 00:58:04,VALID,919.558,VALID,0,VALID,97.6026,VALID,0,VALID,19.9743,VALID,251,VALID,0.313672,
2009-12-01, 00:59:04,VALID,919.55,VALID,0,VALID,97.5873,VALID,0,VALID,19.9938,VALID,251,VALID,0.671484,
2009-12-01, 01:00:04,VALID,919.539,VALID,0,VALID,97.5873,VALID,0,VALID,20.0133,VALID,251,VALID,0.460156,
2009-12-01, 01:01:04,VALID,919.521,VALID,0.5,VALID,97.595,VALID,0,VALID,20.0133,VALID,251,VALID,0,
2009-12-01, 01:02:04,VALID,919.498,VALID,0,VALID,97.5873,VALID,0,VALID,20.0118,VALID,251,VALID,0.312891,
2009-12-01, 01:03:04,VALID,919.485,VALID,0,VALID,97.4959,VALID,0,VALID,20.0133,VALID,251,VALID,0.511328,
2009-12-01, 01:04:04,VALID,919.46,VALID,0,VALID,97.5645,VALID,0,VALID,19.9743,VALID,251,VALID,0.33125,
2009-12-01, 01:05:04,VALID,919.477,VALID,0,VALID,97.5797,VALID,0,VALID,19.9938,VALID,251,VALID,0,
2009-12-01, 01:06:04,VALID,919.454,VALID,0,VALID,97.6026,VALID,0,VALID,20.0328,VALID,251,VALID,0.535937,
2009-12-01, 01:07:04,VALID,919.408,VALID,0,VALID,97.473,VALID,0,VALID,19.9938,VALID,251,VALID,1.26758,
2009-12-01, 01:08:04,VALID,919.41,VALID,0,VALID,97.4501,VALID,0,VALID,19.9158,VALID,251,VALID,1.28984,
2009-12-01, 01:09:04,VALID,919.381,VALID,0,VALID,97.4882,VALID,0,VALID,19.8753,VALID,251,VALID,1.22852,
2009-12-01, 01:10:04,VALID,919.352,VALID,0,VALID,97.4959,VALID,0,VALID,19.8768,VALID,251,VALID,0.828125,
2009-12-01, 01:11:04,VALID,919.375,VALID,0,VALID,97.5264,VALID,0,VALID,19.8768,VALID,251,VALID,0.695313,
2009-12-01, 01:12:04,VALID,919.331,VALID,0,VALID,97.5873,VALID,0,VALID,19.9158,VALID,251,VALID,0.657422,
2009-12-01, 01:13:04,VALID,919.312,VALID,0,VALID,97.6026,VALID,0,VALID,19.9548,VALID,19,VALID,0.933984,
2009-12-01, 01:14:04,VALID,919.311,VALID,0,VALID,97.5797,VALID,0,VALID,19.9548,VALID,19,VALID,0.808203,
2009-12-01, 01:15:04,VALID,919.285,VALID,0,VALID,97.5569,VALID,0,VALID,19.9548,VALID,19,VALID,0.430469,
2009-12-01, 01:16:04,VALID,919.259,VALID,0,VALID,97.534,VALID,0,VALID,19.9143,VALID,19,VALID,0.666406,
2009-12-01, 01:17:04,VALID,919.256,VALID,0,VALID,97.5645,VALID,0,VALID,19.9353,VALID,19,VALID,0.685938,
2009-12-01, 01:18:04,VALID,919.225,VALID,0.5,VALID,97.5264,VALID,0,VALID,19.9353,VALID,19,VALID,1.1832,
2009-12-01, 01:19:04,VALID,919.189,VALID,0,VALID,97.473,VALID,0,VALID,19.8963,VALID,19,VALID,1.09492,
2009-12-01, 01:20:04,VALID,919.173,VALID,0,VALID,97.5111,VALID,0,VALID,19.8768,VALID,348,VALID,0.723047,
2009-12-01, 01:21:04,VALID,919.173,VALID,0,VALID,97.5416,VALID,0,VALID,19.8768,VALID,340,VALID,0.941406,
2009-12-01, 01:22:04,VALID,919.168,VALID,0,VALID,97.5416,VALID,0,VALID,19.8768,VALID,340,VALID,0.853906,
2009-12-01, 01:23:04,VALID,919.136,VALID,0,VALID,97.5187,VALID,0,VALID,19.8573,VALID,340,VALID,0.693359,
2009-12-01, 01:24:04,VALID,919.091,VALID,0,VALID,97.5797,VALID,0,VALID,19.8768,VALID,340,VALID,0.741406,
2009-12-01, 01:25:04,VALID,919.096,VALID,0,VALID,97.5187,VALID,0,VALID,19.8378,VALID,14,VALID,1.58086,
2009-12-01, 01:26:04,VALID,919.111,VALID,0,VALID,97.534,VALID,0,VALID,19.8183,VALID,15,VALID,1.11523,
2009-12-01, 01:27:04,VALID,919.075,VALID,0,VALID,97.5721,VALID,0,VALID,19.8183,VALID,26,VALID,1.07344,
2009-12-01, 01:28:04,VALID,919.073,VALID,0,VALID,97.5569,VALID,0,VALID,19.8168,VALID,26,VALID,0.932422,
2009-12-01, 01:29:04,VALID,919.052,VALID,0,VALID,97.5492,VALID,0,VALID,19.8183,VALID,26,VALID,1.30664,
2009-12-01, 01:30:04,VALID,919.017,VALID,0,VALID,97.5264,VALID,0,VALID,19.7988,VALID,26,VALID,1.56992,
2009-12-01, 01:31:04,VALID,919.02,VALID,0,VALID,97.5569,VALID,0,VALID,19.7793,VALID,26,VALID,1.39414,
2009-12-01, 01:32:04,VALID,919.003,VALID,0,VALID,97.5569,VALID,0,VALID,19.7793,VALID,26,VALID,0.760156,
2009-12-01, 01:33:04,VALID,918.957,VALID,0,VALID,97.5873,VALID,0,VALID,19.7988,VALID,25,VALID,1.05898,
2009-12-01, 01:34:04,VALID,918.959,VALID,0,VALID,97.5569,VALID,0,VALID,19.7988,VALID,26,VALID,1.12969,
2009-12-01, 01:35:04,VALID,918.918,VALID,0,VALID,97.6255,VALID,0,VALID,19.8183,VALID,26,VALID,0.749219,
2009-12-01, 01:36:04,VALID,918.911,VALID,0.5,VALID,97.5416,VALID,0,VALID,19.8183,VALID,26,VALID,0.975,
2009-12-01, 01:37:04,VALID,918.879,VALID,0,VALID,97.5492,VALID,0,VALID,19.7793,VALID,26,VALID,1.10273,
2009-12-01, 01:38:04,VALID,918.842,VALID,0,VALID,97.5873,VALID,0,VALID,19.7793,VALID,26,VALID,1.38281,
2009-12-01, 01:39:04,VALID,918.868,VALID,0,VALID,97.5645,VALID,0,VALID,19.7583,VALID,26,VALID,1.26914,
2009-12-01, 01:40:04,VALID,918.857,VALID,0,VALID,97.6255,VALID,0,VALID,19.7778,VALID,26,VALID,0.903125,
2009-12-01, 01:41:04,VALID,918.852,VALID,0,VALID,97.5873,VALID,0,VALID,19.7988,VALID,26,VALID,1.07656,
2009-12-01, 01:42:04,VALID,918.826,VALID,0,VALID,97.5645,VALID,0,VALID,19.7988,VALID,26,VALID,1.08164,
2009-12-01, 01:43:04,VALID,918.807,VALID,0,VALID,97.5569,VALID,0,VALID,19.7793,VALID,25,VALID,1.37461,
2009-12-01, 01:44:04,VALID,918.807,VALID,0,VALID,97.6255,VALID,0,VALID,19.7988,VALID,25,VALID,0.951563,
2009-12-01, 01:45:04,VALID,918.752,VALID,0,VALID,97.5645,VALID,0,VALID,19.8003,VALID,25,VALID,1.31875,
2009-12-01, 01:46:04,VALID,918.736,VALID,0,VALID,97.5873,VALID,0,VALID,19.7988,VALID,25,VALID,1.18438,
2009-12-01, 01:47:04,VALID,918.765,VALID,0,VALID,97.5645,VALID,0,VALID,19.7793,VALID,25,VALID,1.24258,
2009-12-01, 01:48:04,VALID,918.738,VALID,0,VALID,97.5721,VALID,0,VALID,19.7793,VALID,25,VALID,1.17344,
2009-12-01, 01:49:04,VALID,918.719,VALID,0,VALID,97.5645,VALID,0,VALID,19.7598,VALID,26,VALID,1.44531,
2009-12-01, 01:50:04,VALID,918.702,VALID,0,VALID,97.595,VALID,0,VALID,19.7598,VALID,26,VALID,1.0668,
2009-12-01, 01:51:04,VALID,918.703,VALID,0,VALID,97.595,VALID,0,VALID,19.7388,VALID,26,VALID,1.27773,
2009-12-01, 01:52:04,VALID,918.675,VALID,0,VALID,97.6026,VALID,0,VALID,19.7598,VALID,26,VALID,0.884766,
2009-12-01, 01:53:04,VALID,918.645,VALID,0,VALID,97.6331,VALID,0,VALID,19.7793,VALID,26,VALID,0.711719,
2009-12-01, 01:54:04,VALID,918.668,VALID,0,VALID,97.6407,VALID,0,VALID,19.7988,VALID,26,VALID,0.404297,
2009-12-01, 01:55:04,VALID,918.643,VALID,0.5,VALID,97.656,VALID,0,VALID,19.8183,VALID,26,VALID,0,
2009-12-01, 01:56:04,VALID,918.627,VALID,0,VALID,97.6255,VALID,0,VALID,19.8183,VALID,26,VALID,0.209375,
2009-12-01, 01:57:04,VALID,918.601,VALID,0,VALID,97.6255,VALID,0,VALID,19.8378,VALID,26,VALID,0.159766,
2009-12-01, 01:58:04,VALID,918.529,VALID,0.5,VALID,97.6483,VALID,0,VALID,19.8378,VALID,26,VALID,0.358203,
2009-12-01, 01:59:04,VALID,918.537,VALID,0,VALID,97.6026,VALID,0,VALID,19.8588,VALID,26,VALID,0.385938,
2009-12-01, 02:00:04,VALID,918.483,VALID,0,VALID,97.6026,VALID,0,VALID,19.8363,VALID,26,VALID,0.858594,
2009-12-01, 02:01:04,VALID,918.501,VALID,0.5,VALID,97.595,VALID,0,VALID,19.8363,VALID,25,VALID,0.728516,
2009-12-01, 02:02:04,VALID,918.448,VALID,0.5,VALID,97.6026,VALID,0,VALID,19.8168,VALID,26,VALID,0.828906,
2009-12-01, 02:03:04,VALID,918.425,VALID,1,VALID,97.595,VALID,0.107441,VALID,19.8168,VALID,26,VALID,0.302734,
2009-12-01, 02:04:04,VALID,918.416,VALID,0.5,VALID,97.5492,VALID,0,VALID,19.7778,VALID,26,VALID,1.09141,
2009-12-01, 02:05:04,VALID,918.39,VALID,0.5,VALID,97.5873,VALID,0.107441,VALID,19.7778,VALID,25,VALID,0.352344,
2009-12-01, 02:06:04,VALID,918.313,VALID,0,VALID,97.5492,VALID,0,VALID,19.7778,VALID,25,VALID,0.624219,
2009-12-01, 02:07:04,VALID,918.312,VALID,0,VALID,97.5873,VALID,0,VALID,19.7778,VALID,26,VALID,0.755078,
2009-12-01, 02:08:04,VALID,918.274,VALID,0,VALID,97.595,VALID,0,VALID,19.7778,VALID,25,VALID,0.527344,
2009-12-01, 02:09:04,VALID,918.25,VALID,0.5,VALID,97.6178,VALID,0.107441,VALID,19.7778,VALID,25,VALID,0.280469,
2009-12-01, 02:10:04,VALID,918.23,VALID,0,VALID,97.6865,VALID,0.107441,VALID,19.8363,VALID,25,VALID,0.410937,
2009-12-01, 02:11:04,VALID,918.201,VALID,0,VALID,97.6026,VALID,0.107441,VALID,19.8363,VALID,25,VALID,0.478125,
2009-12-01, 02:12:04,VALID,918.198,VALID,0,VALID,97.5873,VALID,0,VALID,19.7973,VALID,25,VALID,0.613672,
2009-12-01, 02:13:04,VALID,918.201,VALID,0,VALID,97.5721,VALID,0,VALID,19.7778,VALID,25,VALID,0.410156,
2009-12-01, 02:14:04,VALID,918.195,VALID,0,VALID,97.6407,VALID,0,VALID,19.8168,VALID,25,VALID,0.237891,
2009-12-01, 02:15:04,VALID,918.161,VALID,0.5,VALID,97.656,VALID,0,VALID,19.8183,VALID,26,VALID,0.173047,
2009-12-01, 02:16:04,VALID,918.123,VALID,0,VALID,97.6102,VALID,0,VALID,19.8183,VALID,25,VALID,0.19375,
2009-12-01, 02:17:04,VALID,918.102,VALID,0,VALID,97.6255,VALID,0,VALID,19.8168,VALID,25,VALID,0.252734,
2009-12-01, 02:18:04,VALID,918.116,VALID,0,VALID,97.5873,VALID,0,VALID,19.8183,VALID,25,VALID,0,
2009-12-01, 02:19:04,VALID,918.087,VALID,0,VALID,97.6026,VALID,0,VALID,19.8198,VALID,26,VALID,0,
2009-12-01, 02:20:04,VALID,918.065,VALID,0,VALID,97.6407,VALID,0,VALID,19.8183,VALID,25,VALID,0,
2009-12-01, 02:21:04,VALID,918.092,VALID,0,VALID,97.6255,VALID,0,VALID,19.8378,VALID,25,VALID,0.147266,
2009-12-01, 02:22:04,VALID,918.111,VALID,0,VALID,97.6407,VALID,0,VALID,19.7973,VALID,25,VALID,0.380469,
2009-12-01, 02:23:04,VALID,918.092,VALID,0,VALID,97.6255,VALID,0,VALID,19.8183,VALID,25,VALID,0.119141,
2009-12-01, 02:24:04,VALID,918.055,VALID,0,VALID,97.6636,VALID,0,VALID,19.8168,VALID,25,VALID,0.00234375,
2009-12-01, 02:25:04,VALID,918.069,VALID,0,VALID,97.6255,VALID,0,VALID,19.8183,VALID,25,VALID,0.0894531,
2009-12-01, 02:26:04,VALID,918.049,VALID,0,VALID,97.6483,VALID,0,VALID,19.8378,VALID,25,VALID,0.0210938,
2009-12-01, 02:27:04,VALID,918.034,VALID,0,VALID,97.6026,VALID,0,VALID,19.8183,VALID,25,VALID,0.192578,
2009-12-01, 02:28:04,VALID,918.08,VALID,0,VALID,97.6026,VALID,0,VALID,19.8183,VALID,25,VALID,0.146094,
2009-12-01, 02:29:04,VALID,918.057,VALID,0,VALID,97.6026,VALID,0,VALID,19.7988,VALID,25,VALID,0.163281,
2009-12-01, 02:30:04,VALID,918.058,VALID,0,VALID,97.6255,VALID,0,VALID,19.8183,VALID,25,VALID,0.0691406,
2009-12-01, 02:31:04,VALID,918.071,VALID,0,VALID,97.6483,VALID,0,VALID,19.8378,VALID,25,VALID,0,
2009-12-01, 02:32:04,VALID,918.054,VALID,0,VALID,97.6255,VALID,0,VALID,19.8183,VALID,25,VALID,0,
2009-12-01, 02:33:04,VALID,918.094,VALID,0,VALID,97.6255,VALID,0,VALID,19.8573,VALID,25,VALID,0,
2009-12-01, 02:34:04,VALID,918.092,VALID,0,VALID,97.6331,VALID,0,VALID,19.8573,VALID,25,VALID,0.223828,
2009-12-01, 02:35:04,VALID,918.103,VALID,0,VALID,97.6178,VALID,0,VALID,19.8378,VALID,25,VALID,0.08125,
2009-12-01, 02:36:04,VALID,918.109,VALID,0,VALID,97.6483,VALID,0,VALID,19.8573,VALID,25,VALID,0,
2009-12-01, 02:37:04,VALID,918.059,VALID,0,VALID,97.6636,VALID,0,VALID,19.8768,VALID,25,VALID,0.0300781,
2009-12-01, 02:38:04,VALID,918.099,VALID,0,VALID,97.6255,VALID,0,VALID,19.8573,VALID,25,VALID,0.232031,
2009-12-01, 02:39:04,VALID,918.089,VALID,0,VALID,97.6026,VALID,0,VALID,19.8573,VALID,25,VALID,0.503906,
2009-12-01, 02:40:04,VALID,918.053,VALID,0,VALID,97.6026,VALID,0,VALID,19.8573,VALID,25,VALID,0.475,
2009-12-01, 02:41:04,VALID,918.097,VALID,0,VALID,97.5873,VALID,0,VALID,19.8183,VALID,25,VALID,0.328516,
2009-12-01, 02:42:04,VALID,918.053,VALID,0,VALID,97.595,VALID,0,VALID,19.8378,VALID,25,VALID,0.1375,
2009-12-01, 02:43:04,VALID,918.056,VALID,0,VALID,97.6178,VALID,0,VALID,19.8183,VALID,25,VALID,0.286328,
2009-12-01, 02:44:04,VALID,918.029,VALID,0,VALID,97.6178,VALID,0,VALID,19.8168,VALID,25,VALID,0.16875,
2009-12-01, 02:45:04,VALID,918.035,VALID,0,VALID,97.656,VALID,0,VALID,19.8573,VALID,25,VALID,0.103516,
2009-12-01, 02:46:04,VALID,918.014,VALID,0,VALID,97.6712,VALID,0,VALID,19.8963,VALID,25,VALID,0.164453,
2009-12-01, 02:47:04,VALID,918.042,VALID,0,VALID,97.6026,VALID,0,VALID,19.8963,VALID,25,VALID,0.0046875,
2009-12-01, 02:48:04,VALID,918.02,VALID,0,VALID,97.6102,VALID,0,VALID,19.8768,VALID,25,VALID,0.567187,
2009-12-01, 02:49:04,VALID,918.015,VALID,0,VALID,97.6026,VALID,0,VALID,19.8363,VALID,25,VALID,0.562891,
2009-12-01, 02:50:04,VALID,918.04,VALID,0,VALID,97.5645,VALID,0,VALID,19.8378,VALID,25,VALID,0.271875,
2009-12-01, 02:51:04,VALID,918.046,VALID,0,VALID,97.6102,VALID,0,VALID,19.8378,VALID,25,VALID,0,
2009-12-01, 02:52:04,VALID,918.03,VALID,0,VALID,97.6712,VALID,0,VALID,19.8768,VALID,25,VALID,0,
2009-12-01, 02:53:04,VALID,918.051,VALID,0,VALID,97.6102,VALID,0,VALID,19.8558,VALID,25,VALID,0,
2009-12-01, 02:54:04,VALID,918.052,VALID,0,VALID,97.6102,VALID,0,VALID,19.8573,VALID,25,VALID,0,
2009-12-01, 02:55:04,VALID,918.072,VALID,0,VALID,97.6178,VALID,0,VALID,19.8363,VALID,25,VALID,0,
2009-12-01, 02:56:04,VALID,918.062,VALID,0,VALID,97.6102,VALID,0,VALID,19.8378,VALID,25,VALID,0,
2009-12-01, 02:57:04,VALID,918.107,VALID,0,VALID,97.6178,VALID,0,VALID,19.8558,VALID,25,VALID,0,
2009-12-01, 02:58:04,VALID,918.086,VALID,0,VALID,97.6483,VALID,0,VALID,19.8768,VALID,25,VALID,0,
2009-12-01, 02:59:04,VALID,918.092,VALID,0,VALID,97.656,VALID,0,VALID,19.8963,VALID,25,VALID,0,
2009-12-01, 03:00:04,VALID,918.086,VALID,0,VALID,97.6407,VALID,0,VALID,19.9158,VALID,25,VALID,0,
2009-12-01, 03:01:04,VALID,918.095,VALID,0,VALID,97.6407,VALID,0,VALID,19.8963,VALID,25,VALID,0,
2009-12-01, 03:02:04,VALID,918.085,VALID,0,VALID,97.595,VALID,0,VALID,19.8963,VALID,25,VALID,0.416016,
2009-12-01, 03:03:04,VALID,918.095,VALID,0,VALID,97.5873,VALID,0,VALID,19.8573,VALID,25,VALID,0.346094,
2009-12-01, 03:04:04,VALID,918.094,VALID,0,VALID,97.595,VALID,0,VALID,19.8573,VALID,25,VALID,0.335938,
2009-12-01, 03:05:04,VALID,918.096,VALID,0,VALID,97.6178,VALID,0,VALID,19.8168,VALID,25,VALID,0.334375,
2009-12-01, 03:06:04,VALID,918.105,VALID,0,VALID,97.595,VALID,0,VALID,19.8168,VALID,25,VALID,0.009375,
2009-12-01, 03:07:04,VALID,918.114,VALID,0,VALID,97.6407,VALID,0,VALID,19.8573,VALID,25,VALID,0.046875,
2009-12-01, 03:08:04,VALID,918.129,VALID,0,VALID,97.6331,VALID,0,VALID,19.8558,VALID,25,VALID,0,
2009-12-01, 03:09:04,VALID,918.084,VALID,0,VALID,97.656,VALID,0,VALID,19.8363,VALID,25,VALID,0,
2009-12-01, 03:10:04,VALID,918.127,VALID,0,VALID,97.6331,VALID,0,VALID,19.8768,VALID,25,VALID,0,
2009-12-01, 03:11:04,VALID,918.102,VALID,0,VALID,97.656,VALID,0,VALID,19.8963,VALID,25,VALID,0,
2009-12-01, 03:12:04,VALID,918.116,VALID,0,VALID,97.5797,VALID,0,VALID,19.8963,VALID,25,VALID,0,
2009-12-01, 03:13:04,VALID,918.11,VALID,0,VALID,97.6026,VALID,0,VALID,19.8573,VALID,25,VALID,0,
2009-12-01, 03:14:04,VALID,918.124,VALID,0,VALID,97.6255,VALID,0,VALID,19.8768,VALID,25,VALID,0,
2009-12-01, 03:15:04,VALID,918.109,VALID,0,VALID,97.6331,VALID,0,VALID,19.8768,VALID,25,VALID,0,
2009-12-01, 03:16:04,VALID,918.124,VALID,0,VALID,97.6178,VALID,0,VALID,19.8768,VALID,25,VALID,0,
2009-12-01, 03:17:04,VALID,918.11,VALID,0,VALID,97.6102,VALID,0,VALID,19.8573,VALID,25,VALID,0,
2009-12-01, 03:18:04,VALID,918.106,VALID,0,VALID,97.656,VALID,0,VALID,19.8768,VALID,25,VALID,0,
2009-12-01, 03:19:04,VALID,918.103,VALID,0,VALID,97.6865,VALID,0,VALID,19.8948,VALID,25,VALID,0,
2009-12-01, 03:20:04,VALID,918.09,VALID,0,VALID,97.6102,VALID,0,VALID,19.8768,VALID,25,VALID,0,
2009-12-01, 03:21:04,VALID,918.115,VALID,0,VALID,97.6483,VALID,0,VALID,19.9158,VALID,25,VALID,0,
2009-12-01, 03:22:04,VALID,918.139,VALID,0,VALID,97.6331,VALID,0,VALID,19.9143,VALID,25,VALID,0,
2009-12-01, 03:23:04,VALID,918.1,VALID,0,VALID,97.6483,VALID,0,VALID,19.9353,VALID,25,VALID,0,
2009-12-01, 03:24:04,VALID,918.069,VALID,0,VALID,97.6483,VALID,0,VALID,19.9143,VALID,25,VALID,0,
2009-12-01, 03:25:04,VALID,918.082,VALID,0,VALID,97.656,VALID,0,VALID,19.9743,VALID,25,VALID,0,
2009-12-01, 03:26:04,VALID,918.054,VALID,0,VALID,97.6102,VALID,0,VALID,19.9533,VALID,25,VALID,0,
2009-12-01, 03:27:04,VALID,918.074,VALID,0,VALID,97.6483,VALID,0,VALID,19.9533,VALID,25,VALID,0,
2009-12-01, 03:28:04,VALID,918.057,VALID,0,VALID,97.5873,VALID,0,VALID,19.9353,VALID,25,VALID,0,
2009-12-01, 03:29:04,VALID,918.052,VALID,0,VALID,97.6255,VALID,0.107441,VALID,19.9143,VALID,25,VALID,0.590625,
2009-12-01, 03:30:04,VALID,918.057,VALID,0,VALID,97.6255,VALID,0,VALID,19.9143,VALID,25,VALID,0.488672,
2009-12-01, 03:31:04,VALID,918.042,VALID,0,VALID,97.6178,VALID,0,VALID,19.9143,VALID,25,VALID,0.389453,
2009-12-01, 03:32:04,VALID,918.041,VALID,0,VALID,97.6255,VALID,0.107441,VALID,19.9143,VALID,25,VALID,0.559766,
2009-12-01, 03:33:04,VALID,918.065,VALID,0,VALID,97.6407,VALID,0,VALID,19.9143,VALID,25,VALID,0.418359,
2009-12-01, 03:34:04,VALID,918.064,VALID,0,VALID,97.5721,VALID,0,VALID,19.9143,VALID,25,VALID,0.238281,
2009-12-01, 03:35:04,VALID,918.05,VALID,0,VALID,97.5569,VALID,0,VALID,19.8753,VALID,25,VALID,0.000390625,
2009-12-01, 03:36:04,VALID,918.05,VALID,0,VALID,97.595,VALID,0,VALID,19.8558,VALID,25,VALID,0.353516,
2009-12-01, 03:37:04,VALID,918.016,VALID,0,VALID,97.595,VALID,0,VALID,19.8363,VALID,25,VALID,0.708594,
2009-12-01, 03:38:04,VALID,918.001,VALID,0,VALID,97.6178,VALID,0,VALID,19.7973,VALID,25,VALID,0.617578,
2009-12-01, 03:39:04,VALID,917.998,VALID,0,VALID,97.6178,VALID,0,VALID,19.7973,VALID,25,VALID,0.695703,
2009-12-01, 03:40:04,VALID,917.996,VALID,0,VALID,97.595,VALID,0,VALID,19.7988,VALID,25,VALID,0.588672,
2009-12-01, 03:41:04,VALID,917.949,VALID,0,VALID,97.6407,VALID,0,VALID,19.7583,VALID,25,VALID,0.784375,
2009-12-01, 03:42:04,VALID,917.979,VALID,0,VALID,97.6102,VALID,0,VALID,19.7388,VALID,25,VALID,0.874219,
2009-12-01, 03:43:04,VALID,917.985,VALID,0,VALID,97.6255,VALID,0,VALID,19.7388,VALID,25,VALID,0.979688,
2009-12-01, 03:44:04,VALID,917.986,VALID,0,VALID,97.6483,VALID,0,VALID,19.7598,VALID,25,VALID,0.438281,
2009-12-01, 03:45:04,VALID,917.985,VALID,0,VALID,97.6865,VALID,0,VALID,19.7598,VALID,25,VALID,1.09648,
2009-12-01, 03:46:04,VALID,917.993,VALID,0,VALID,97.656,VALID,0,VALID,19.7793,VALID,25,VALID,0.654688,